Location: Helsinki
(60.1699°N, 24.9384°E)
Time: 15:34:55
(UTC+02:00)

Vanguard 2 - Visible Passes

Search period start: 30 October 2020 00:00
Search period end: 09 November 2020 00:00
Orbit: 554 x 2937 km, 32.9° (Epoch: 30 October)

Date Brightness Start Highest point End Pass type
(mag) Time Alt. Az. Time Alt. Az. Time Alt. Az.
30 Oct 11.2 18:42:29 10° S 18:48:39 14° SE 18:53:40 12° SE visible
30 Oct 11.1 20:46:08 10° SSW 20:55:02 22° S 20:55:02 22° S visible
30 Oct 11.5 22:53:54 10° SW 22:56:25 14° SW 22:56:25 14° SW visible
31 Oct 11.2 18:58:18 10° S 19:05:29 16° SSE 19:10:11 14° SE visible
31 Oct 11.1 21:03:10 10° SW 21:11:34 22° S 21:11:34 22° S visible
31 Oct 11.5 23:11:40 10° WSW 23:12:57 12° SW 23:12:57 12° SW visible
01 Nov 11.1 19:14:38 10° SSW 19:22:25 18° SSE 19:26:42 16° SE visible
01 Nov 11.1 21:20:25 10° SW 21:28:05 21° SSW 21:28:05 21° SSW visible
02 Nov 11.1 19:31:17 10° SSW 19:39:23 19° SSE 19:43:13 17° SSE visible
02 Nov 11.2 21:37:51 10° SW 21:44:35 20° SSW 21:44:35 20° SSW visible
03 Nov 11.2 17:45:35 10° SSE 17:49:14 12° SE 17:53:18 10° SE visible
03 Nov 11.0 19:48:13 10° SSW 19:56:26 20° S 19:59:43 18° SSE visible
03 Nov 11.2 21:55:32 10° SW 22:01:06 18° SSW 22:01:06 18° SSW visible
04 Nov 11.1 18:01:12 10° S 18:06:08 14° SSE 18:11:52 10° SE visible
04 Nov 11.0 20:05:23 10° SW 20:13:31 20° S 20:16:14 19° SSE visible
04 Nov 11.3 22:13:30 10° SW 22:17:36 15° SW 22:17:36 15° SW visible
05 Nov 11.1 18:17:32 10° S 18:23:05 15° SSE 18:29:44 10° SE visible
05 Nov 11.1 20:22:45 10° SW 20:30:39 19° S 20:32:47 18° S visible
05 Nov 11.5 22:31:58 10° SW 22:34:10 12° SW 22:34:10 12° SW visible
06 Nov 11.1 18:34:16 10° SSW 18:40:07 16° SSE 18:47:13 10° SE visible
06 Nov 11.1 20:40:23 10° SW 20:47:47 18° S 20:49:21 17° S visible
07 Nov 11.0 18:51:19 10° SSW 18:57:12 16° S 19:04:24 10° SE visible
07 Nov 11.2 20:58:19 10° SW 21:04:56 16° SSW 21:05:57 16° S visible
08 Nov 11.1 19:08:37 10° SSW 19:14:20 16° S 19:21:13 10° SE visible
08 Nov 11.3 21:16:47 10° SW 21:22:04 13° SSW 21:22:37 13° SSW visible
